Weather in Ozernoye

Russia / Krasnoyarsk Krai     58°27′54″N   92°04′59″E
temp.,
°C
wind,
m/s
gust,
m/s
humid.,
%
clouds,
%
prec.,
mm/h
press.,
hPa
HPBL,
m
28 june, tue
tue2801:00+16ese2598100 0.2 99498
04:00+16ese51399100 7.3 991611
07:00+18s5129688 11.6 9911054
10:00+16wsw51290100 1.1 9951058
13:00+20wsw7115833 1.9 9981720
16:00+20wsw6115061 0.2 10012033
19:00+18wsw496594 0.3 10031322
22:00+13wsw279023 0.3 1004162
29 june, wed
wed2901:00+11sw26975 0.4 1006137
04:00+10sw279770 0.0 1007165
07:00+13sw248763 0.0 1007241
10:00+18ssw345657 0.0 10071480
13:00+18ssw2563100 0.0 10061135
16:00+21sw0352100 0.0 1004974
19:00+21nne11580 0.0 1003524
22:00+15ene2377100 0.0 100147
30 june, thu
thu3001:00+14ese31184100 0.0 999234
04:00+15ese41376100 0.0 997384
07:00+16se31079100 0.0 998434
10:00+20se3768100 0.1 997515
13:00+23sw476496 0.4 9991374
16:00+18wsw3787100 1.3 1001875
19:00+20wsw47450 1.3 10021087
22:00+13sw22690 0.0 100335
1 july, fri
fri101:00+10wnw11810 0.0 100416
04:00+8e118415 0.0 100510
07:00+13sse1368100 0.0 1004205
10:00+19sse3449100 0.0 10041064
13:00+22sw4644100 0.0 10022252
16:00+22wsw364461 0.0 10021563
19:00+20w255512 0.0 1002440
22:00+15w1167100 0.0 100311
2 july, sat
sat201:00+12wsw1170100 0.0 100314
04:00+10wsw227958 0.0 100334
07:00+14sw24686 0.0 1003250
10:00+19sw4750100 0.0 10031440
13:00+21sw4741100 0.0 10022616
16:00+19wsw2555100 0.0 1002683
19:00+20sw2752100 0.0 10012082
22:00+12wsw118479 0.0 100112